2024/04/02 00:00:00,74.9, 3.6
2024/04/02 00:10:00,74.9, 3.6
2024/04/02 00:20:00,74.9, 3.3
2024/04/02 00:30:00,74.9, 3.4
2024/04/02 00:40:00,74.9, 3.7
2024/04/02 00:50:00,74.9, 3.8
2024/04/02 01:00:00,74.9, 3.6
2024/04/02 01:10:00,74.9, 3.5
2024/04/02 01:20:00,74.9, 3.7
2024/04/02 01:30:00,74.9, 3.5
2024/04/02 01:40:00,74.9, 3.3
2024/04/02 01:50:00,74.9, 3.4
2024/04/02 02:00:00,74.9, 3.6
2024/04/02 02:10:00,74.9, 3.4
2024/04/02 02:20:00,74.9, 3.6
2024/04/02 02:30:00,74.9, 3.2
2024/04/02 02:40:00,74.9, 3.5
2024/04/02 02:50:00,74.9, 3.6
2024/04/02 03:00:00,74.9, 3.6
2024/04/02 03:10:00,74.9, 3.7
2024/04/02 03:20:00,74.9, 3.8
2024/04/02 03:30:00,74.9, 3.7
2024/04/02 03:40:00,74.9, 3.7
2024/04/02 03:50:00,74.9, 3.9
2024/04/02 04:00:00,74.9, 3.8
2024/04/02 04:10:00,74.9, 3.7
2024/04/02 04:20:00,74.9, 3.8
2024/04/02 04:30:00,74.9, 3.7
2024/04/02 04:40:00,74.9, 3.8
2024/04/02 04:50:00,74.9, 3.9
2024/04/02 05:00:00,74.9, 4.0
2024/04/02 05:10:00,74.9, 4.2
2024/04/02 05:20:00,74.9, 4.4
2024/04/02 05:30:00,74.9, 4.2
2024/04/02 05:40:00,74.9, 4.1
2024/04/02 05:50:00,74.9, 4.2
2024/04/02 06:00:00,74.9, 4.4
2024/04/02 06:10:00,74.9, 5.0
2024/04/02 06:20:00,74.9, 4.6
2024/04/02 06:30:00,74.9, 4.8
2024/04/02 06:40:00,74.9, 5.0
2024/04/02 06:50:00,74.9, 5.0
2024/04/02 07:00:00,74.9, 5.9
2024/04/02 07:10:00,74.9, 5.6
2024/04/02 07:20:00,74.9, 6.7
2024/04/02 07:30:00,74.9, 6.8
2024/04/02 07:40:00,74.9, 7.9
2024/04/02 07:50:00,74.9, 7.6
2024/04/02 08:00:00,74.9, 8.6
2024/04/02 08:10:00,74.9, 9.3
2024/04/02 08:20:00,74.9, 9.9
2024/04/02 08:30:00,74.9,10.5
2024/04/02 08:40:00,74.9,10.7
2024/04/02 08:50:00,74.9,11.4
2024/04/02 09:00:00,74.9,11.6
2024/04/02 09:10:00,74.9,12.2
2024/04/02 09:20:00,74.9,12.6
2024/04/02 09:30:00,74.9,13.2
2024/04/02 09:40:00,74.9,13.4
2024/04/02 09:50:00,74.9,13.5
2024/04/02 10:00:00,74.9,13.8
2024/04/02 10:10:00,74.9,14.6
2024/04/02 10:20:00,74.9,14.9
2024/04/02 10:30:00,74.9,15.2
2024/04/02 10:40:00,74.9,15.7
2024/04/02 10:50:00,74.9,16.0
2024/04/02 11:00:00,74.9,15.9
2024/04/02 11:10:00,74.9,16.6
2024/04/02 11:20:00,74.9,16.9
2024/04/02 11:30:00,74.9,16.9
2024/04/02 11:40:00,74.9,17.3
2024/04/02 11:50:00,74.9,17.3
2024/04/02 12:00:00,74.9,17.6
2024/04/02 12:10:00,74.9,17.9
2024/04/02 12:20:00,74.9,17.7
2024/04/02 12:30:00,74.9,18.0
2024/04/02 12:40:00,74.9,18.0
2024/04/02 12:50:00,74.9,17.7
2024/04/02 13:00:00,74.9,17.9
2024/04/02 13:10:00,74.9,18.1
2024/04/02 13:20:00,74.9,17.5
2024/04/02 13:30:00,74.9,18.1
2024/04/02 13:40:00,74.9,17.7
2024/04/02 13:50:00,74.9,17.9
2024/04/02 14:00:00,74.9,17.7
2024/04/02 14:10:00,74.9,18.0
2024/04/02 14:20:00,74.9,18.3
2024/04/02 14:30:00,74.9,17.8
2024/04/02 14:40:00,74.9,17.9
2024/04/02 14:50:00,74.9,17.7
2024/04/02 15:00:00,74.9,17.5
2024/04/02 15:10:00,74.9,17.0
2024/04/02 15:20:00,74.9,16.7
2024/04/02 15:30:00,74.9,16.4
2024/04/02 15:40:00,74.9,16.3
2024/04/02 15:50:00,74.9,16.1
2024/04/02 16:00:00,74.9,16.0
2024/04/02 16:10:00,74.9,15.2
2024/04/02 16:20:00,74.9,14.7
2024/04/02 16:30:00,74.9,14.3
2024/04/02 16:40:00,74.9,13.6
2024/04/02 16:50:00,74.9,13.0
2024/04/02 17:00:00,74.9,12.9
2024/04/02 17:10:00,74.9,12.7
2024/04/02 17:20:00,74.9,12.4
2024/04/02 17:30:00,74.9,12.4
2024/04/02 17:40:00,74.9,12.0
2024/04/02 17:50:00,74.9,11.8
2024/04/02 18:00:00,74.9,11.3
2024/04/02 18:10:00,74.9,10.9
2024/04/02 18:20:00,74.9,11.1
2024/04/02 18:30:00,74.9,10.8
2024/04/02 18:40:00,74.9,10.7
2024/04/02 18:50:00,74.9,10.5
2024/04/02 19:00:00,74.9,10.3
2024/04/02 19:10:00,74.9,10.4
2024/04/02 19:20:00,74.9,10.5
2024/04/02 19:30:00,74.9,10.2
2024/04/02 19:40:00,74.9, 9.9
2024/04/02 19:50:00,74.9,10.3
2024/04/02 20:00:00,74.9, 9.9
2024/04/02 20:10:00,74.9, 9.9
2024/04/02 20:20:00,74.9, 9.8
2024/04/02 20:30:00,74.9,10.0
2024/04/02 20:40:00,74.9, 9.9
2024/04/02 20:50:00,74.9, 9.7
2024/04/02 21:00:00,74.9, 9.5
2024/04/02 21:10:00,74.9, 9.3
2024/04/02 21:20:00,74.9, 9.2
2024/04/02 21:30:00,74.9, 9.3
2024/04/02 21:40:00,74.9, 9.2
2024/04/02 21:50:00,74.9, 9.2
2024/04/02 22:00:00,74.9, 9.4
2024/04/02 22:10:00,74.9, 9.3
2024/04/02 22:20:00,74.9, 8.9
2024/04/02 22:30:00,74.9, 9.2
2024/04/02 22:40:00,74.9, 9.2
2024/04/02 22:50:00,74.9, 9.1
2024/04/02 23:00:00,74.9, 9.0
2024/04/02 23:10:00,74.9, 9.4
2024/04/02 23:20:00,74.9, 9.4
2024/04/02 23:30:00,74.9, 9.3
2024/04/02 23:40:00,74.9, 9.5
2024/04/02 23:50:00,74.9, 9.4
